Flight Track Log - Related Links

Times and Time Zones

All times are in EDT time to prevent confusion due to time zone crossing. See the ASQ5685 flight status page for this flight to view local times or setup timezone preferences in your user account.

Time Position Orientation Groundspeed Altitude Reporting Facility
EDT Latitude Longitude Course Direction KTS MPH feet Rate Location/Type
Sun 11:25:02 AM 33.6333 -84.4667 48° Northeast 162 186 2,800  Level Atlanta TRACON
Sun 11:25:52 AM 33.6117 -84.5228 245° Southwest 396 456 4,100 1,964 Climbing Atlanta Center
Sun 11:26:52 AM 33.5656 -84.5922 231° Southwest 309 356 6,400 2,450 Climbing Atlanta Center
Sun 11:27:52 AM 33.4781 -84.5742 170° South 295 339 9,000 2,700 Climbing Atlanta Center
Sun 11:28:00 AM 33.7794 -83.9289 54° Northeast  Level FlightAware Approximate
Sun 11:28:52 AM 33.4553 -84.4869 107° East 311 358 11,800  Level Atlanta Center
Sun 11:29:00 AM 33.8433 -83.8223 54° Northeast  Level FlightAware Approximate
Sun 11:30:00 AM 33.9131 -83.7214 48° Northeast  Level FlightAware Approximate
Sun 11:30:52 AM 33.4600 -84.2828 88° East 301 346 15,900  Level Atlanta Center
Sun 11:31:52 AM 33.5311 -84.2331 30° Northeast 284 327 17,800 1,200 Climbing Atlanta Center
Sun 11:32:52 AM 33.6106 -84.1786 30° Northeast 298 343 18,300 1,050 Climbing Atlanta Center
Sun 11:33:52 AM 33.6961 -84.1211 29° Northeast 334 384 19,900 1,050 Climbing Atlanta Center
Sun 11:34:52 AM 33.7672 -84.0314 46° Northeast 365 420 20,400 500 Climbing Atlanta Center
Sun 11:35:52 AM 33.8256 -83.9139 59° Northeast 391 450 20,900 550 Climbing Atlanta Center
Sun 11:36:52 AM 33.8900 -83.7936 57° Northeast 418 481 21,500 550 Climbing Atlanta Center
Sun 11:37:52 AM 33.9564 -83.6756 56° Northeast 423 487 22,000 500 Climbing Atlanta Center
Sun 11:38:52 AM 34.0292 -83.5575 53° Northeast 440 506 22,500 450 Climbing Atlanta Center
Sun 11:39:52 AM 34.0956 -83.4517 53° Northeast 440 506 22,900 450 Climbing Atlanta Center
Sun 11:40:52 AM 34.1719 -83.3308 53° Northeast 440 506 23,400 500 Climbing Atlanta Center
Sun 11:41:52 AM 34.2444 -83.2144 53° Northeast 435 501 23,900 500 Climbing Atlanta Center
Sun 11:42:52 AM 34.3167 -83.0931 54° Northeast 441 507 24,400 500 Climbing Atlanta Center
Sun 11:43:52 AM 34.3928 -82.9764 52° Northeast 441 507 24,900 500 Climbing Atlanta Center
Sun 11:44:52 AM 34.4647 -82.8547 54° Northeast 439 505 25,400 550 Climbing Atlanta Center
Sun 11:45:52 AM 34.5408 -82.7375 52° Northeast 439 505 26,000 550 Climbing Atlanta Center
Sun 11:46:52 AM 34.6250 -82.6050 52° Northeast 444 511 26,500 450 Climbing Atlanta Center
Sun 11:47:52 AM 34.6883 -82.4978 54° Northeast 439 505 26,900 250 Climbing Atlanta Center
Sun 11:48:52 AM 34.7639 -82.3750 53° Northeast 439 505 27,000 50 Climbing Atlanta Center
Sun 11:49:52 AM 34.8372 -82.2494 55° Northeast 445 512 27,000 300 Level Atlanta Center
Sun 11:50:52 AM 34.9228 -82.1161 52° Northeast 450 518 27,600 550 Climbing Atlanta Center
Sun 11:51:52 AM 34.9981 -81.9925 53° Northeast 450 518 28,100 467 Climbing Atlanta Center
Sun 11:53:52 AM 35.1375 -81.7353 58° Northeast 450 518 29,000 300 Climbing Atlanta Center
Sun 11:54:52 AM 35.2058 -81.6036 58° Northeast 450 518 29,000  Level Atlanta Center
Sun 11:55:52 AM 35.2761 -81.4692 57° Northeast 460 529 29,000  Level Atlanta Center
Sun 11:56:52 AM 35.3483 -81.3347 57° Northeast 465 535 29,000  Level Atlanta Center
Sun 11:57:52 AM 35.4183 -81.1947 58° Northeast 465 535 29,000  Level Atlanta Center
Sun 11:58:52 AM 35.4900 -81.0569 57° Northeast 470 541 29,000  Level Atlanta Center
Sun 11:59:52 AM 35.5639 -80.9192 57° Northeast 476 548 29,000  Level Atlanta Center
Sun 12:00:52 PM 35.6353 -80.7783 58° Northeast 481 554 29,000  Level Atlanta Center
Sun 12:01:52 PM 35.7086 -80.6397 57° Northeast 481 554 29,000  Level Atlanta Center
Sun 12:02:52 PM 35.7797 -80.4986 58° Northeast 486 559 29,000  Level Atlanta Center
Sun 12:05:01 PM 35.9339 -80.1967 58° Northeast 477 549 29,000  Level Washington Center
Sun 12:06:02 PM 35.9992 -80.0722 57° Northeast 477 549 29,000  Level Washington Center
Sun 12:07:02 PM 36.0711 -79.9322 58° Northeast 482 555 29,000  Level Washington Center
Sun 12:08:03 PM 36.1489 -79.7978 54° Northeast 477 549 29,000  Level Washington Center
Sun 12:09:01 PM 36.2267 -79.6578 55° Northeast 483 556 29,000  Level Washington Center
Sun 12:10:02 PM 36.3111 -79.5075 55° Northeast 478 550 29,000 -98 Level Washington Center
Sun 12:11:03 PM 36.3886 -79.3694 55° Northeast 478 550 28,800 -545 Descending Washington Center
Sun 12:12:03 PM 36.4572 -79.2436 56° Northeast 478 550 27,900 -950 Descending Washington Center
Sun 12:13:03 PM 36.5450 -79.0953 54° Northeast 478 550 26,900 -1,017 Descending Washington Center
Sun 12:14:01 PM 36.6219 -78.9564 55° Northeast 478 550 25,900 -958 Descending Washington Center
Sun 12:15:02 PM 36.6969 -78.8144 57° Northeast 483 556 25,000 -446 Descending Washington Center
Sun 12:16:02 PM 36.7736 -78.6750 56° Northeast 483 556 25,000  Level Washington Center
Sun 12:17:03 PM 36.8644 -78.5514 47° Northeast 482 555 25,000  Level Washington Center
Sun 12:18:01 PM 36.9650 -78.4436 41° Northeast 470 541 25,000  Level Washington Center
Sun 12:19:02 PM 37.0592 -78.3428 41° Northeast 475 547 25,000  Level Washington Center
Sun 12:20:03 PM 37.1617 -78.2344 40° Northeast 480 552 25,000 -50 Level Washington Center
Sun 12:21:01 PM 37.2728 -78.1131 41° Northeast 485 558 24,900 -610 Descending Washington Center
Sun 12:22:01 PM 37.3711 -78.0014 42° Northeast 480 552 23,800 -984 Descending Washington Center
Sun 12:23:03 PM 37.4714 -77.8919 41° Northeast 480 552 22,900 -1,230 Descending Washington Center
Sun 12:24:03 PM 37.5772 -77.7983 35° Northeast 470 541 21,300 -1,729 Descending Washington Center
Sun 12:25:01 PM 37.6892 -77.7331 25° Northeast 451 519 19,500 -1,881 Descending Washington Center
Sun 12:26:01 PM 37.7964 -77.6731 24° Northeast 435 501 17,600 -1,884 Descending Washington Center
Sun 12:27:02 PM 37.8933 -77.6153 25° Northeast 410 472 15,700 -1,934 Descending Washington Center
Sun 12:28:02 PM 37.9903 -77.5572 25° Northeast 391 450 13,700 -1,983 Descending Washington Center
Sun 12:29:03 PM 38.0725 -77.5094 25° Northeast 361 415 11,700 -1,785 Descending Washington Center
Sun 12:30:03 PM 38.1628 -77.4589 24° Northeast 361 415 10,100 -864 Descending Washington Center
Sun 12:31:01 PM 38.2325 -77.4156 26° Northeast 324 373 10,000 -508 Descending Washington Center
Sun 12:32:01 PM 38.3017 -77.3750 25° Northeast 292 336 9,100 -1,041 Descending Washington Center
Sun 12:33:02 PM 38.3731 -77.3581 11° North 271 312 7,900 -1,180 Descending Washington Center
Sun 12:34:03 PM 38.4500 -77.3600 359° North 263 303 6,700 -1,210 Descending Washington Center
Sun 12:35:01 PM 38.5208 -77.3642 357° North 253 291 5,500 -857 Descending Washington Center
Sun 12:36:02 PM 38.5917 -77.3686 357° North 253 291 5,000 -446 Descending Washington Center
Sun 12:37:02 PM 38.6647 -77.3625 North 253 291 4,600 -559 Descending Washington Center
Sun 12:38:00 PM 38.7500 -77.3500 North 268 308 3,900 -375 Descending Potomac TRACON
Sun 12:38:54 PM 38.8167 -77.3500 360° North 266 306 3,900  Level Potomac TRACON
Sun 12:39:54 PM 38.8833 -77.3500 360° North 269 310 3,900  Level Potomac TRACON
Sun 12:40:54 PM 38.9667 -77.3500 360° North 265 305 3,900 -397 Level Potomac TRACON
Sun 12:41:55 PM 39.0333 -77.3500 360° North 222 255 3,100 -496 Descending Potomac TRACON
Sun 12:42:55 PM 39.0667 -77.3833 322° Northwest 178 205 2,900 -150 Descending Potomac TRACON
Sun 12:43:55 PM 39.0500 -77.4333 247° West 170 196 2,800 -545 Descending Potomac TRACON
Sun 12:44:56 PM 39.0167 -77.4500 201° Southwest 143 165 1,800 -1,148 Descending Potomac TRACON
Sun 12:45:50 PM 38.9833 -77.4667 201° Southwest 145 167 600 -1,333 Descending Potomac TRACON

Login

Don't have an account? Register now (free) for customized features, flight alerts, and more!